Location: Bauerbach
(50.4985°N, 10.3912°E)
Time: 22:07:44
(UTC+00:00)

Sich 1 - Pass Details

Date: 13 January 2026
Orbit: 572 x 598 km, 82.5° (Epoch: 17 February)

Event Time Altitude Azimuth Distance (km) Brightness Sun altitude
Rises 05:57:15 0° 222° (SW) 2,807 6.2 -11.8°
Reaches altitude 10° 05:59:47 10° 236° (WSW) 1,907 5.2 -11.4°
Maximum altitude 06:03:13 24° 291° (WNW) 1,227 4.0 -10.9°
Drops below altitude 10° 06:06:40 10° 347° (NNW) 1,906 5.2 -10.4°
Sets 06:09:13 0° 1° (N) 2,806 6.2 -10.0°
